Theta_e
334 339 341 344 344 345 347 347 351 351 353 351 352 354 354 356 354 355 356 356 357 357 356 354 353 352 352 351 352 352 351 351 351 348 347 351 351 349 351 349 348 349 348 347 346 346 346 346 345 345 344 343 343 344 343 342 341 340 338 336 333 331 330 330 330 328 329 329 331 333 335 336 338 340 341 341 340 341 343 342 342 343 342 342 342 343 343 343 345 345 344 344 339 339 342 341 341
342 343 343 345 345 348 350 350 354 352 352 350 351 355 354 356 355 355 356 356 357 356 355 352 352 352 352 351 351 351 350 351 351 351 350 351 351 351 350 349 349 350 348 345 345 346 347 346 344 344 343 342 342 343 342 339 337 335 333 331 331 332 333 333 333 332 333 335 337 338 338 338 339 341 341 341 340 341 342 341 341 342 342 342 342 342 342 343 345 345 344 344 342 341 341 342 342
344 344 345 347 348 349 351 352 354 351 351 349 350 355 356 356 356 356 356 357 357 354 353 352 353 353 352 351 352 350 350 349 349 351 351 350 351 351 350 349 349 350 348 345 345 346 347 345 342 343 342 340 341 340 338 336 334 334 334 335 338 340 339 337 336 336 337 337 338 338 339 339 340 342 342 342 341 341 342 341 342 343 342 342 342 341 341 343 344 344 343 344 344 342 340 340 342
344 345 347 349 350 351 353 354 355 350 347 346 348 355 357 356 357 357 357 357 355 353 353 353 353 354 354 352 352 351 351 349 349 350 351 350 350 350 350 349 348 349 349 348 347 346 347 344 341 341 339 338 337 336 335 335 336 337 338 340 342 341 338 337 338 339 338 337 337 338 340 339 340 342 342 342 341 341 342 342 342 342 343 342 342 341 340 342 343 343 342 343 344 343 342 340 340
346 347 349 350 352 353 354 356 356 351 347 348 351 356 357 356 357 357 357 355 354 354 354 353 353 354 355 354 353 351 350 349 350 350 350 351 350 348 348 348 348 350 351 352 350 348 346 342 340 339 337 337 337 336 336 337 338 340 341 343 343 340 338 340 340 339 338 338 339 340 339 339 340 340 341 341 341 342 342 342 342 342 342 342 342 341 340 340 342 343 342 342 343 343 343 341 341
348 349 349 351 353 353 354 351 349 349 352 355 354 356 357 357 358 357 357 355 354 354 354 353 352 353 354 353 353 351 350 349 350 351 351 351 350 348 346 346 349 350 349 350 350 347 344 341 339 337 336 337 339 339 339 338 340 342 344 344 342 340 340 341 340 339 339 339 340 339 338 339 340 340 341 341 341 342 342 341 342 342 341 341 342 341 341 340 341 343 342 342 342 342 342 342 342
349 350 351 352 354 355 355 349 347 350 356 358 355 356 357 358 359 357 357 356 355 354 354 354 353 352 353 353 352 352 351 349 350 351 351 351 350 349 347 348 350 349 348 347 347 345 342 339 336 335 337 339 340 340 339 339 341 343 346 345 342 341 340 341 341 340 340 339 339 339 339 340 340 342 343 342 341 342 342 341 341 341 341 342 343 342 342 341 341 342 342 341 342 341 342 342 342
350 351 354 355 356 355 354 349 351 354 356 357 356 357 357 358 359 357 357 356 355 354 354 353 353 352 353 354 354 353 350 350 351 351 351 350 350 349 349 350 349 348 347 346 346 344 340 335 334 335 338 339 339 339 340 341 341 344 347 345 341 340 340 340 341 341 340 339 340 340 340 340 340 343 345 344 343 342 342 341 341 341 342 343 343 342 341 341 340 341 341 341 340 341 342 342 342
351 352 355 354 355 353 350 349 353 356 356 356 356 358 358 358 357 357 356 355 355 354 354 353 353 353 354 355 355 353 351 351 351 350 351 350 350 350 351 350 349 348 347 348 346 341 336 333 332 333 337 338 340 341 342 343 343 346 347 344 340 340 340 341 341 341 341 340 340 340 340 340 341 343 343 343 343 342 341 342 342 341 341 341 341 341 342 341 340 340 341 341 340 341 342 342 342
353 354 354 354 353 348 345 349 355 357 356 357 356 358 359 357 357 357 356 355 355 355 355 353 353 354 354 355 354 353 351 351 350 350 351 350 350 350 351 350 349 348 348 349 345 336 331 331 330 333 338 339 341 342 343 344 344 347 347 343 340 340 341 341 341 341 342 342 342 342 341 340 340 342 341 340 341 342 342 343 342 340 340 340 339 339 340 340 341 341 341 341 340 340 341 341 341
354 353 354 354 349 344 344 347 355 357 356 356 357 358 357 357 357 357 357 356 356 355 354 354 354 354 355 355 353 352 351 351 350 349 350 350 350 350 350 350 348 348 349 349 346 338 334 337 337 339 342 341 342 342 343 344 345 347 346 343 340 339 341 342 342 341 342 343 343 343 342 340 340 340 341 340 340 342 342 343 343 341 340 340 340 340 340 340 341 341 340 340 340 341 342 341 342
353 353 354 353 347 346 347 348 354 358 357 356 356 357 357 357 357 357 357 356 356 355 355 355 354 354 354 354 353 351 351 350 349 350 350 350 350 349 349 349 348 348 349 349 349 345 342 344 342 341 341 342 343 343 344 344 344 346 346 344 340 340 342 343 344 342 342 343 344 344 343 341 340 340 341 341 340 342 342 342 342 341 341 341 341 341 340 339 340 341 340 340 341 342 342 342 343
353 354 354 352 350 352 352 351 356 358 357 356 356 358 357 357 357 357 358 356 356 355 355 355 354 354 353 353 352 350 350 350 350 350 350 349 349 349 349 348 348 348 348 350 352 350 346 344 341 340 341 342 344 344 343 344 344 345 346 345 342 342 343 344 344 342 342 343 343 343 343 342 341 341 341 340 340 342 342 342 342 341 342 343 342 341 340 337 339 341 341 342 342 342 341 342 342
353 355 355 353 352 354 353 352 354 354 354 357 357 359 358 356 357 357 357 356 356 355 354 354 353 354 353 352 351 349 350 349 350 350 350 349 349 349 348 348 347 347 348 350 351 349 346 344 342 342 343 344 345 344 344 344 344 345 345 344 344 344 344 344 344 343 343 342 342 342 342 342 343 342 341 339 339 341 342 341 341 341 342 343 343 342 342 340 338 340 342 342 342 341 341 342 342
354 355 355 354 352 351 351 351 353 352 353 357 358 359 358 357 357 357 357 356 355 355 354 354 353 354 352 351 349 348 349 349 350 350 350 349 348 349 348 348 347 346 348 349 348 347 345 344 344 344 345 346 348 348 346 344 345 345 344 344 344 345 344 344 343 343 344 343 342 342 343 343 344 344 341 339 339 340 341 341 340 340 342 343 344 343 343 343 341 340 341 342 342 341 341 342 342
354 354 354 352 349 348 349 352 352 352 353 356 358 359 359 358 357 357 357 357 355 354 353 353 352 353 353 350 349 348 349 349 350 350 349 349 348 348 348 347 347 346 347 348 348 345 343 344 345 343 344 347 351 351 346 344 345 344 344 344 344 344 344 344 343 343 344 344 342 342 344 343 344 344 342 340 339 340 340 340 341 340 341 342 343 343 343 343 342 342 342 342 342 342 342 342 342
354 355 354 349 347 348 350 352 351 351 355 357 359 359 359 358 358 358 357 356 354 354 353 353 351 352 352 351 349 348 348 349 349 350 349 348 348 347 347 347 346 345 345 347 346 342 342 345 346 344 345 348 351 350 346 344 344 344 343 344 345 344 344 343 343 343 343 343 342 342 343 343 345 345 342 341 340 341 340 340 341 340 340 340 341 342 342 342 342 342 341 341 341 341 341 340 340
354 354 352 347 348 350 351 352 352 353 356 358 360 360 358 357 358 358 357 356 355 355 353 352 352 352 352 351 350 349 348 348 348 349 349 349 348 347 347 346 346 345 344 345 342 339 344 346 345 346 346 347 347 346 345 344 345 346 344 343 345 344 343 343 342 343 343 343 343 342 344 345 346 346 343 341 340 340 340 339 340 340 339 339 340 341 341 342 342 342 342 342 342 341 341 340 338
354 353 350 349 350 351 350 351 352 353 355 358 361 360 358 357 358 358 357 357 356 355 353 352 352 352 352 350 349 349 348 348 348 348 348 348 347 347 348 346 346 346 346 346 341 340 346 345 345 347 346 345 345 344 345 345 346 349 347 344 345 344 343 343 343 344 343 342 344 346 347 346 345 346 344 342 341 340 342 341 340 341 340 338 338 340 340 340 341 342 343 343 342 343 345 345 342
354 352 350 349 349 350 349 349 350 353 356 360 360 360 359 358 357 358 358 358 356 355 352 351 352 352 351 349 349 348 348 348 347 347 347 347 346 347 347 346 347 347 346 346 343 344 346 344 345 347 345 345 346 345 346 347 347 349 350 349 348 347 345 344 344 345 344 342 343 344 345 344 342 344 343 343 343 341 341 341 341 342 340 338 337 339 339 339 342 343 344 345 345 346 348 348 346
352 351 350 350 350 349 347 346 347 350 355 359 359 359 359 358 357 358 358 355 355 355 352 350 352 352 350 349 349 348 348 347 347 346 346 346 346 346 346 346 347 347 346 345 345 345 345 345 345 345 344 344 345 344 346 347 347 350 352 351 351 350 348 346 346 347 345 342 342 343 342 342 341 342 345 347 346 345 344 344 345 342 340 340 339 340 340 340 344 347 347 349 349 349 348 346 344
349 350 350 350 349 347 345 344 344 347 353 357 359 357 357 358 357 357 357 355 355 355 352 350 351 351 350 349 349 348 347 347 346 346 346 347 346 346 345 345 346 346 345 345 346 345 345 347 345 345 345 344 344 344 345 345 346 351 352 351 352 352 350 348 349 349 347 344 345 346 345 346 344 344 348 349 348 348 348 348 347 343 340 341 340 340 340 340 345 349 350 350 349 348 345 342 340
347 348 349 349 347 346 345 343 342 344 350 356 359 357 358 359 357 356 356 355 355 354 352 351 351 350 349 349 349 348 347 347 346 346 347 346 346 346 345 345 345 345 345 346 347 345 346 348 346 346 346 345 345 344 345 344 345 349 348 348 351 352 351 350 351 348 345 344 345 347 348 349 348 348 349 348 348 349 349 346 344 341 340 340 341 341 340 341 345 348 349 349 349 348 344 340 339
347 347 348 347 346 345 342 340 340 342 346 353 357 358 359 358 356 356 356 355 354 353 352 351 351 350 349 349 349 348 348 348 347 347 347 346 345 345 345 344 344 344 345 347 347 346 347 348 347 347 347 346 346 345 345 344 345 346 345 347 349 349 351 351 349 344 342 341 341 343 346 347 347 347 346 346 348 349 346 342 339 340 340 340 340 341 341 342 345 347 349 349 349 349 346 344 343
345 346 348 346 344 343 339 338 337 339 344 351 356 358 359 358 357 356 356 355 354 353 352 351 351 349 349 350 349 349 348 348 348 348 346 345 345 344 344 344 344 344 345 347 348 347 349 348 347 347 346 345 344 345 346 345 345 345 345 347 347 346 349 348 344 341 341 341 339 340 343 345 344 344 343 342 345 346 342 339 339 340 339 339 340 342 341 342 346 348 349 349 349 349 349 347 346
344 346 346 343 342 340 338 337 335 339 345 351 355 357 358 358 357 355 356 355 353 353 352 351 351 350 350 350 350 349 349 349 348 348 347 346 346 345 345 344 344 343 344 347 347 348 349 348 347 346 345 343 342 344 346 344 345 345 345 346 344 344 346 343 341 342 340 340 339 339 341 343 343 343 342 342 342 341 339 338 339 338 338 339 341 341 341 344 347 349 350 349 349 349 349 348 348
342 341 340 339 340 340 338 336 335 340 347 352 354 353 357 357 355 355 355 355 353 354 353 352 351 350 351 350 350 350 349 349 349 348 347 347 347 346 344 343 343 343 345 346 347 348 348 347 347 346 343 341 340 342 344 343 343 346 345 344 344 344 344 342 343 341 339 339 339 339 339 341 342 342 342 342 342 340 338 338 338 339 340 339 341 341 342 346 349 349 349 349 350 350 349 349 349
339 338 338 339 340 340 338 336 336 341 348 352 354 353 355 356 353 355 356 355 354 353 353 352 352 351 351 350 350 349 349 348 348 348 348 348 347 346 344 342 342 343 345 346 347 348 347 347 347 345 341 338 339 340 341 341 344 346 345 345 345 343 343 343 343 341 340 340 338 339 340 340 341 342 342 342 341 340 339 339 339 341 341 339 340 342 341 344 346 345 343 346 349 350 350 350 349
338 338 338 339 340 339 337 338 338 343 348 352 354 353 353 355 353 356 356 354 354 354 353 353 352 352 351 351 350 349 349 348 348 347 347 347 346 345 343 341 341 342 345 346 347 347 347 348 346 344 342 336 337 340 339 341 345 345 345 346 345 343 343 343 343 342 340 339 339 339 339 340 341 341 342 341 340 339 339 340 340 340 341 339 339 339 338 341 346 345 344 346 350 350 349 350 349
337 338 338 339 339 338 339 340 340 344 349 351 355 351 351 353 353 355 356 354 355 354 354 353 353 353 352 352 351 350 349 349 348 347 347 347 346 345 343 341 340 341 345 346 347 348 348 348 346 346 345 338 336 340 340 340 344 345 345 346 344 345 346 346 344 341 340 340 339 339 338 340 341 341 341 340 340 339 339 340 340 340 340 340 338 338 341 344 346 348 348 349 350 350 349 350 350
338 338 337 340 336 334 339 342 343 346 350 352 354 350 350 353 353 354 355 354 355 355 355 354 353 353 352 353 351 350 350 349 348 348 348 347 346 345 343 342 340 341 345 346 346 347 347 347 346 347 347 341 336 338 339 340 343 344 345 345 343 345 349 349 347 345 344 343 343 342 340 340 340 341 342 340 340 340 341 341 341 341 340 341 340 340 344 345 344 347 350 350 350 350 349 349 350
338 335 334 338 334 334 340 343 344 346 348 352 353 349 351 351 353 354 355 355 355 356 355 354 354 353 352 353 352 350 350 349 348 348 348 347 346 345 344 343 340 341 343 344 345 347 348 345 343 346 347 343 338 336 337 340 342 342 344 344 343 345 349 351 350 348 348 347 347 345 341 341 342 341 343 342 341 342 342 342 342 342 341 343 342 341 345 346 345 345 347 350 351 349 349 349 350
337 335 332 335 333 333 337 342 346 347 347 350 352 350 349 350 354 354 355 354 355 356 355 355 354 354 353 352 352 351 350 350 349 348 348 347 347 345 344 343 341 341 341 343 345 345 349 345 340 346 346 342 337 334 335 339 341 341 342 344 344 346 349 351 349 348 350 350 350 347 342 342 342 342 343 343 343 342 342 343 343 342 342 344 343 342 345 346 347 346 344 348 351 350 349 349 350
331 335 333 333 334 332 332 339 344 346 346 347 350 351 349 349 354 355 354 354 355 356 356 355 355 354 354 352 352 352 350 350 349 349 349 348 347 346 345 344 341 341 340 342 344 344 347 344 340 345 345 341 335 331 335 339 340 341 341 343 344 346 348 351 350 348 349 351 351 348 343 342 342 343 344 344 344 343 343 344 343 342 342 343 343 343 343 343 346 350 347 345 349 351 351 350 350
328 332 331 329 332 331 331 335 337 342 346 347 347 347 349 349 351 355 355 354 355 356 356 355 356 355 354 353 352 352 351 351 349 349 350 348 348 347 345 344 341 341 340 341 343 343 346 344 341 342 340 340 336 330 336 338 339 341 341 343 344 346 348 349 350 349 349 350 350 347 344 343 343 344 344 345 345 344 343 344 343 343 343 342 341 341 342 341 343 347 348 345 345 349 351 351 350
332 333 333 329 329 330 331 332 331 336 341 344 346 345 347 348 349 353 354 354 354 355 356 355 356 355 355 354 352 352 351 350 349 349 350 349 348 347 345 344 342 341 341 341 342 341 341 341 340 338 335 339 337 330 335 340 340 341 342 344 345 346 347 347 348 349 350 350 348 346 345 345 345 344 345 345 345 345 344 343 343 343 342 341 340 339 343 345 342 342 345 345 345 347 348 350 350
334 334 333 332 330 329 332 331 329 332 335 339 343 344 345 346 347 351 352 353 354 355 356 355 356 356 355 355 353 353 352 351 350 349 350 349 347 346 345 345 343 342 342 341 340 338 335 336 339 339 333 335 337 332 335 340 342 343 343 346 348 347 347 348 348 348 350 349 345 344 344 345 346 344 345 345 344 344 344 343 343 342 341 340 339 340 344 345 342 342 343 343 346 350 350 350 349
334 333 332 331 330 330 331 332 329 329 332 335 338 339 341 343 344 349 351 351 352 353 354 355 355 356 355 355 354 353 353 351 350 349 349 348 347 346 347 347 345 344 341 336 336 335 331 332 337 339 335 331 333 334 335 338 341 343 345 347 349 349 348 349 349 350 352 348 341 340 342 344 345 344 343 343 343 344 344 343 343 341 340 340 339 341 342 343 343 343 344 345 348 350 352 350 348
333 333 331 329 331 332 330 330 329 329 331 332 333 333 335 337 338 345 348 348 348 350 352 353 355 356 356 355 355 354 353 352 351 350 350 348 347 348 348 348 347 346 342 333 331 331 329 331 334 337 337 331 329 332 335 337 338 340 345 348 349 350 350 350 351 351 351 348 341 339 341 342 344 343 342 341 342 344 344 342 342 341 340 340 341 342 342 343 343 343 345 349 350 350 350 349 346
332 331 329 327 331 331 327 327 329 330 330 330 331 330 331 334 332 338 344 345 346 348 349 352 353 356 356 355 355 354 354 353 352 351 350 348 347 348 349 349 349 348 347 340 335 332 329 329 332 335 338 334 330 330 332 335 336 336 340 344 347 349 350 350 350 348 347 346 342 340 340 341 343 344 342 341 342 343 342 341 341 341 340 340 342 342 342 343 344 344 346 348 350 351 349 347 346
331 331 329 328 331 331 329 328 330 330 329 329 329 327 328 332 331 333 337 341 345 347 349 350 351 354 355 355 355 354 354 353 353 351 350 349 348 349 349 350 349 349 349 348 343 339 333 328 328 332 337 337 333 330 330 333 334 334 336 339 342 345 347 349 349 349 347 345 344 343 341 340 343 345 343 342 342 342 342 341 341 340 339 340 343 342 342 344 344 346 346 345 348 351 348 346 345
328 331 331 330 331 332 332 331 329 326 325 328 328 323 324 331 335 337 338 339 343 346 349 349 350 353 354 355 355 354 354 353 353 352 350 350 349 349 350 350 350 349 350 349 347 344 339 333 329 328 332 336 337 334 332 332 334 335 336 338 340 341 345 349 350 351 349 347 350 349 342 340 343 345 343 342 342 342 341 341 342 341 340 340 342 341 343 345 345 346 346 346 348 349 347 346 345
325 329 331 332 332 331 330 331 328 323 323 327 328 324 323 331 338 343 343 343 345 347 349 350 349 352 354 354 354 353 354 353 352 352 351 350 350 350 350 350 350 349 349 349 348 347 343 340 336 331 329 331 336 338 335 333 335 337 337 338 342 343 346 350 350 351 351 350 353 350 342 339 342 344 344 342 343 342 342 342 342 343 342 341 342 341 342 345 346 347 346 345 347 345 344 347 345
326 329 330 330 330 329 330 330 327 325 327 327 328 326 323 327 338 345 345 347 348 348 349 351 351 353 354 353 353 353 352 353 353 352 351 350 350 350 350 350 350 349 350 349 349 348 344 342 342 339 333 328 330 335 337 336 336 337 337 339 343 346 349 350 346 347 350 349 350 349 345 341 341 343 344 343 342 343 343 344 343 344 344 343 343 342 342 344 345 345 344 343 344 341 342 345 345
328 330 329 328 329 329 329 328 327 327 326 322 325 326 322 325 337 343 344 345 346 347 345 347 350 352 353 353 353 353 352 352 353 352 352 351 351 350 350 350 350 349 350 349 349 348 344 342 343 343 339 332 327 329 333 336 337 337 337 338 341 343 347 350 348 347 348 347 348 349 347 344 342 342 343 343 343 343 343 344 343 344 345 344 344 344 343 343 344 343 343 342 341 340 341 343 344
330 329 328 328 328 328 328 328 326 325 324 321 322 323 321 326 336 339 342 343 343 344 343 343 347 349 352 354 354 354 352 352 352 352 352 351 350 350 350 350 350 349 349 349 349 347 344 343 343 343 342 339 333 330 329 332 335 337 338 338 339 340 341 345 348 349 347 346 348 348 346 345 344 343 343 343 342 343 343 343 344 344 345 345 344 345 345 343 342 342 342 342 340 339 340 341 343
329 327 327 327 327 328 328 327 326 323 321 321 322 323 321 325 334 338 339 341 342 343 343 343 345 346 349 353 354 354 353 352 352 352 352 352 350 350 350 350 350 349 349 349 349 348 345 343 343 343 343 343 341 338 335 331 332 334 337 338 338 339 339 338 341 344 346 347 348 349 348 346 345 345 345 344 342 343 343 343 344 343 344 344 344 344 344 344 345 344 342 342 340 338 338 340 343
327 326 326 324 324 325 324 324 324 322 320 320 323 324 320 324 333 338 339 340 340 341 342 342 344 346 348 350 353 354 353 353 353 352 352 352 351 351 350 350 350 349 349 349 349 349 347 344 343 344 343 344 344 343 341 337 332 331 333 336 338 339 339 338 336 338 342 346 348 349 349 347 346 346 346 345 343 343 343 343 344 343 343 343 344 343 342 345 349 347 344 342 341 339 338 338 341
326 325 323 321 320 321 320 320 321 320 319 321 324 323 324 329 335 337 338 339 339 341 342 342 344 347 347 348 350 352 354 354 354 353 353 353 352 351 351 350 350 350 349 349 349 349 348 345 344 344 343 344 344 344 344 342 338 332 330 332 336 339 340 339 336 335 337 341 346 348 349 348 347 345 345 345 345 345 343 343 343 343 344 343 343 344 342 344 347 346 343 343 342 339 338 337 338
324 323 321 319 319 319 320 320 319 318 318 322 324 322 325 332 336 336 338 338 340 341 342 343 344 346 347 348 348 350 353 354 354 354 353 352 353 353 352 351 350 350 349 348 348 349 348 345 345 345 344 344 344 344 344 344 343 338 333 330 332 336 339 340 338 336 336 337 340 346 349 350 349 347 345 345 347 348 345 342 342 343 344 344 343 343 343 343 344 343 343 344 343 340 338 337 337
323 325 323 320 320 320 319 318 317 317 318 320 321 320 324 330 335 336 337 338 340 341 341 343 344 345 346 347 347 348 349 350 352 353 352 351 353 353 352 352 351 350 350 349 349 348 347 345 345 345 345 344 345 344 344 344 344 343 339 334 331 332 335 339 339 337 336 335 337 342 346 350 351 349 346 343 344 345 344 343 342 341 343 344 344 343 343 343 343 343 344 344 344 342 340 337 336
323 324 323 320 321 322 320 318 317 317 318 318 319 322 328 334 335 336 337 338 340 340 341 343 343 344 345 345 346 345 346 347 349 351 352 351 352 354 353 353 352 351 351 350 350 348 347 346 345 345 346 345 345 345 345 345 344 344 342 339 335 332 332 335 337 336 335 333 335 338 341 345 350 350 347 343 342 342 343 342 342 342 342 343 344 343 343 343 342 344 345 344 344 344 342 340 337
321 321 320 321 324 324 320 319 320 317 317 318 321 327 332 333 335 335 335 337 338 339 341 341 342 343 344 344 345 344 344 346 346 348 350 352 353 354 354 353 353 352 352 351 351 349 347 347 346 346 346 346 346 346 345 345 345 344 344 343 340 336 332 331 333 333 333 333 333 335 338 340 344 347 346 345 343 341 342 342 342 344 343 342 344 344 343 343 342 343 345 345 345 345 344 342 340
320 319 320 322 323 324 322 321 319 317 318 319 321 326 327 327 332 335 335 336 336 337 339 340 340 341 342 343 344 343 343 344 345 346 348 351 353 353 353 354 353 353 353 352 350 349 348 347 347 347 346 346 346 346 346 346 345 345 344 344 343 339 334 331 331 331 331 332 332 333 337 339 339 342 346 346 344 342 342 341 341 343 343 342 343 343 343 343 343 343 344 345 345 346 345 344 342
320 319 321 322 320 320 321 320 319 317 317 320 322 324 325 327 333 335 334 335 335 335 336 337 338 339 340 341 342 343 343 343 344 346 347 350 352 353 353 353 353 353 352 352 350 349 349 348 348 347 348 347 347 347 347 346 346 345 345 345 344 342 336 332 331 331 330 331 332 332 334 336 336 338 341 342 342 343 343 341 340 341 342 342 342 343 343 342 343 343 344 345 347 345 345 346 344
320 320 321 322 321 320 320 320 321 317 317 322 324 324 327 332 335 335 334 335 334 335 335 335 337 338 338 338 339 341 342 343 343 344 346 348 350 352 353 352 351 351 352 353 351 350 350 350 349 349 348 348 347 347 347 347 346 346 345 345 345 344 340 335 333 333 331 329 330 331 333 335 336 336 337 338 339 342 344 343 343 343 344 345 344 343 345 343 342 343 344 348 351 347 344 346 347
319 319 319 320 321 322 321 321 321 318 318 322 323 323 329 334 334 333 334 333 333 334 334 335 337 337 336 336 336 337 339 342 343 343 344 346 348 351 352 351 351 350 351 352 352 352 351 351 351 351 350 349 348 348 347 347 347 346 346 345 345 345 343 339 335 334 333 331 330 329 331 334 334 333 334 335 335 338 341 343 346 348 349 350 347 343 345 345 343 343 343 344 348 346 344 346 347
317 318 318 319 319 320 320 320 320 319 319 321 321 323 330 334 332 332 333 332 332 334 334 335 335 335 335 334 334 335 336 339 341 342 343 344 347 349 351 351 351 351 352 352 351 351 352 351 351 352 351 351 350 349 348 347 347 347 346 345 345 345 345 343 339 336 334 333 332 329 328 330 331 330 330 331 332 335 336 338 345 347 348 350 348 344 345 347 345 345 344 344 346 344 343 345 345
Wind_Speed
9 9 9 8 8 8 7 6 3 3 4 2 2 2 4 6 7 7 7 7 6 6 5 10 15 11 6 6 9 10 11 7 2 1 6 12 22 23 20 21 22 21 20 19 18 18 17 16 15 14 15 15 15 15 15 15 15 15 14 14 13 13 12 12 11 9 8 7 7 7 7 7 7 8 8 7 7 7 8 7 7 7 6 6 6 6 6 7 8 9 10 10 12 11 10 10 10
9 9 9 8 8 6 5 4 3 3 5 1 4 4 5 6 7 8 8 6 6 8 10 14 14 8 7 9 9 9 12 11 6 10 15 21 24 21 21 22 21 21 20 20 18 17 15 14 15 13 14 14 15 14 14 14 14 14 13 13 13 12 12 11 9 8 9 8 8 8 7 7 7 8 7 6 6 6 6 6 6 6 6 6 6 7 6 7 7 8 9 8 11 12 9 10 11
9 10 8 7 6 4 1 3 3 3 2 3 5 5 5 6 8 8 7 8 10 13 14 14 12 7 7 8 6 7 8 9 11 16 21 22 22 21 21 21 20 19 19 19 17 16 15 13 14 13 13 13 14 15 14 14 14 14 13 12 12 11 10 9 9 10 10 9 9 8 7 7 7 8 8 6 6 6 5 6 6 6 6 7 6 7 7 7 7 7 9 8 10 12 10 9 11
10 9 7 5 5 3 2 3 3 3 1 5 5 6 5 8 9 9 10 12 14 16 15 14 10 5 6 8 7 9 10 10 12 17 22 19 19 24 22 21 20 18 18 17 16 15 14 12 12 12 11 11 13 14 14 14 13 13 12 11 11 9 9 9 11 11 10 9 10 8 7 7 7 8 8 6 7 7 6 5 6 6 7 8 8 8 7 7 8 8 9 9 10 13 12 10 10
9 7 6 3 4 2 2 3 2 2 3 4 5 6 7 9 10 10 12 14 14 15 14 12 9 7 9 10 7 8 10 12 15 16 20 17 20 25 23 22 20 18 17 16 15 15 13 12 12 11 10 10 11 12 12 12 12 12 11 11 10 9 10 11 11 11 10 9 9 8 7 7 7 8 8 7 8 9 8 7 7 8 8 9 9 9 9 8 9 9 10 10 11 12 13 13 11
7 6 4 5 6 3 3 3 1 3 6 5 6 8 8 10 11 13 14 14 13 13 12 9 10 11 10 11 10 10 8 12 16 15 18 20 22 24 24 22 19 18 17 16 15 14 13 12 12 11 10 10 11 11 11 11 11 11 11 11 10 10 11 11 11 10 10 9 8 8 7 7 7 9 9 8 9 10 9 9 9 10 11 11 10 10 10 10 10 11 11 11 12 11 13 14 12
6 5 4 5 5 3 4 0 3 5 5 5 7 8 8 10 12 14 14 12 11 11 9 9 13 11 9 8 10 10 7 12 16 16 19 23 24 23 23 20 18 18 16 15 13 13 13 12 12 12 11 11 11 11 10 9 10 10 10 11 11 11 11 12 10 9 9 8 8 8 7 7 8 10 10 9 10 11 10 10 11 11 12 12 11 12 12 12 12 12 11 12 12 11 12 12 12
5 5 5 4 3 4 3 2 4 5 5 5 7 8 9 11 12 13 12 11 10 10 9 11 12 9 8 7 8 8 9 12 15 18 22 25 25 23 21 19 19 18 16 14 12 11 12 12 12 12 12 12 10 10 9 8 8 9 11 12 11 10 10 11 9 8 9 9 9 8 7 8 9 10 10 10 11 11 11 11 12 13 13 12 12 12 13 12 12 11 11 12 11 11 11 11 11
5 5 4 4 2 3 1 3 5 6 7 7 8 9 10 11 11 11 11 11 11 12 12 11 8 8 9 9 11 10 10 13 17 22 24 25 25 22 20 18 19 18 17 14 11 12 12 12 12 12 12 11 10 8 8 8 8 8 12 13 10 11 10 10 9 8 9 9 9 9 8 8 8 10 11 11 11 11 11 13 14 14 14 13 12 12 12 12 11 11 11 11 11 10 10 11 11
6 6 4 3 3 2 3 4 5 6 8 8 8 9 9 9 9 10 11 12 13 12 11 9 8 11 11 11 12 10 12 16 21 24 24 24 23 22 19 18 18 18 17 14 12 12 12 12 12 12 10 9 9 8 7 8 7 8 13 13 10 12 10 9 9 9 9 9 10 10 9 8 8 9 11 12 12 11 12 13 14 14 15 14 13 12 12 13 11 11 11 11 11 11 10 11 11
5 5 3 3 2 2 4 5 5 6 8 8 8 9 8 8 9 10 11 12 13 12 11 9 10 15 13 11 11 11 16 19 22 24 24 24 22 21 20 19 18 18 16 15 14 12 12 11 10 10 9 9 8 7 7 7 7 8 13 13 12 12 10 9 9 9 9 9 10 11 9 9 10 10 11 12 13 12 12 13 14 15 16 15 13 13 13 13 12 12 12 12 13 12 12 12 12
3 2 3 3 1 3 3 6 7 7 8 7 8 8 7 8 9 10 12 12 12 12 10 8 11 13 11 10 10 14 19 20 22 23 23 23 21 20 20 19 18 17 16 16 14 13 12 10 9 8 8 8 7 7 7 7 7 7 11 13 12 12 10 10 10 10 10 10 10 11 10 9 10 11 12 12 13 13 12 12 14 14 15 15 14 14 14 14 13 13 14 13 14 14 13 13 12
3 2 3 1 2 2 3 5 7 6 7 7 8 8 7 8 9 11 11 12 12 10 9 9 13 11 9 11 12 16 20 20 21 22 23 22 21 20 19 19 18 17 16 15 14 13 12 10 8 7 8 8 8 7 7 7 7 7 10 11 11 11 11 11 10 11 10 10 10 10 11 11 11 12 12 12 13 13 13 12 13 14 15 15 14 15 16 15 14 14 15 14 15 15 14 13 13
3 4 4 1 1 2 3 5 5 5 6 7 9 9 7 6 8 10 11 12 9 8 9 10 13 11 11 12 13 18 21 21 22 22 22 20 20 20 19 19 18 17 16 15 14 14 12 10 9 8 8 8 8 8 7 7 7 8 9 10 10 10 11 11 10 11 11 10 10 10 12 12 12 12 12 13 13 13 13 13 13 14 15 15 15 16 17 16 15 15 16 15 15 15 15 14 13
4 5 4 2 2 3 3 3 3 4 7 8 10 10 7 6 8 9 8 8 8 9 10 11 9 7 11 12 14 22 23 23 22 22 22 21 20 20 19 19 18 17 16 14 14 13 11 10 10 9 8 8 8 7 7 7 7 8 9 9 10 10 10 11 10 11 11 11 10 11 12 13 13 14 13 13 13 13 13 13 13 14 14 15 15 16 16 16 17 16 16 16 15 16 16 15 14
4 5 4 2 2 4 4 4 3 4 6 8 11 11 8 8 8 7 5 4 9 10 8 9 6 3 11 14 18 25 25 24 22 21 21 21 20 19 19 18 17 17 15 14 13 12 11 10 10 10 9 8 8 7 7 8 7 8 9 9 10 10 10 10 10 10 11 11 11 11 13 14 14 15 14 13 12 13 13 13 14 14 14 14 14 15 16 16 17 17 17 17 17 16 16 16 15
4 5 3 1 4 5 6 5 5 4 6 10 12 11 8 9 8 6 5 5 10 10 6 8 6 4 11 16 22 27 26 25 23 22 22 21 20 19 18 18 17 17 15 14 12 12 11 9 10 10 9 9 9 8 7 8 8 8 9 9 9 10 10 10 10 10 11 11 11 11 12 14 15 16 15 13 12 12 12 13 14 14 13 14 14 15 16 16 17 17 17 17 17 17 17 16 16
4 3 1 2 5 6 6 7 6 4 5 10 12 11 7 10 10 8 8 7 10 9 7 8 8 8 13 19 26 28 27 25 23 23 22 21 19 18 18 18 17 16 15 14 12 12 11 10 9 9 10 9 8 8 7 8 8 8 8 9 9 10 9 10 11 11 11 11 11 11 12 12 14 15 15 13 12 12 12 12 13 13 12 12 14 14 15 16 16 16 16 16 16 16 16 16 16
5 3 0 3 5 6 7 9 7 5 3 8 12 11 7 9 11 11 9 9 11 9 9 10 12 14 17 23 27 28 27 26 24 23 22 20 19 18 18 18 17 16 15 14 13 12 11 10 10 10 10 9 8 8 8 7 8 8 7 8 9 10 10 10 12 11 11 11 11 11 11 11 14 14 15 14 13 12 11 11 12 12 11 12 13 14 15 15 15 15 16 15 15 15 15 13 13
5 4 0 5 5 5 8 10 8 7 4 7 11 11 8 8 11 10 8 10 10 8 11 13 15 19 22 26 27 28 27 25 25 23 21 20 19 18 18 18 18 17 16 14 13 12 11 11 11 10 10 10 9 8 8 8 7 8 7 7 8 9 10 10 11 11 10 11 11 11 11 11 13 13 15 15 13 12 11 11 11 11 12 12 12 13 13 13 13 14 14 14 13 13 11 10 10
3 3 1 6 3 3 7 10 8 7 4 5 8 10 8 9 10 10 9 9 8 8 11 14 17 23 26 28 28 27 27 26 25 23 21 20 19 18 18 18 17 16 16 14 14 13 12 12 12 11 10 10 9 9 9 8 8 8 8 8 8 8 9 10 10 10 10 11 11 11 10 11 12 13 14 14 13 12 11 11 10 10 11 11 11 12 11 11 12 11 11 12 10 10 10 10 11
2 3 1 2 2 3 5 7 7 6 3 5 7 8 8 10 9 10 10 4 3 8 12 14 19 24 27 29 29 27 27 26 25 23 22 20 19 18 17 17 16 16 16 14 14 13 12 12 12 11 10 9 9 9 9 9 9 9 9 9 9 8 8 9 9 9 9 10 11 11 10 11 11 12 12 12 12 12 11 9 8 9 11 10 10 10 10 10 10 9 9 10 9 9 10 11 11
4 4 2 1 3 3 5 6 5 3 2 4 6 6 8 10 9 10 9 3 6 9 13 16 20 24 26 27 28 28 28 26 25 24 22 21 20 19 18 18 17 16 16 15 14 14 13 12 12 11 10 10 9 9 9 9 9 9 9 9 10 8 8 8 8 8 9 9 10 10 10 10 10 10 11 11 12 11 10 9 8 9 10 9 9 9 9 9 9 9 9 9 9 9 10 12 11
6 3 1 2 4 4 5 5 3 2 0 3 5 6 8 10 7 9 10 5 7 11 15 17 21 25 25 25 25 27 27 26 24 22 21 20 20 19 19 18 17 16 15 15 15 14 13 12 12 11 10 10 9 9 9 9 9 9 9 9 9 9 9 8 7 8 9 9 9 10 10 9 10 10 10 11 11 10 9 9 8 9 9 9 9 9 9 9 8 8 9 9 9 8 9 11 11
9 5 2 4 5 5 6 5 3 1 1 4 7 6 8 8 6 8 10 8 10 13 17 20 22 25 24 23 24 25 25 24 23 21 20 19 18 18 18 17 16 16 15 15 15 14 13 13 13 11 11 10 9 9 9 9 9 9 9 9 9 9 9 8 8 8 9 9 9 10 10 9 10 10 10 10 11 10 10 9 9 9 9 10 10 9 9 9 8 8 8 8 8 8 8 10 10
6 6 4 6 7 6 6 5 2 2 4 7 8 7 7 9 6 7 10 10 12 16 18 21 23 24 23 22 24 25 25 24 23 22 20 19 18 18 17 17 16 16 15 15 15 15 14 14 14 12 12 11 11 10 9 9 9 9 9 9 9 9 9 9 10 9 9 9 9 9 10 9 10 9 9 10 10 10 10 10 10 9 10 10 10 9 9 8 7 7 7 7 7 7 7 8 9
1 5 6 7 9 7 6 4 1 3 7 9 9 7 8 10 7 6 10 13 14 17 19 21 23 23 22 22 22 23 24 24 23 22 20 19 19 19 18 16 16 15 15 15 14 14 14 14 14 13 12 12 12 11 9 9 9 9 9 9 9 9 9 10 9 9 9 9 9 9 9 9 10 9 9 9 9 9 10 10 10 10 10 10 10 9 9 8 6 7 7 7 7 7 7 8 8
3 5 6 7 8 6 5 3 3 5 7 10 9 7 9 10 7 7 13 16 16 17 19 20 20 21 21 21 22 22 22 22 22 22 21 21 20 19 19 17 16 16 15 15 14 14 14 14 14 13 12 12 12 12 11 11 10 9 10 9 9 9 9 9 9 9 9 8 9 9 9 9 9 9 9 9 9 9 10 10 10 10 9 10 10 9 9 8 7 7 8 8 7 7 7 7 7
6 7 5 6 7 5 2 0 5 6 7 11 9 6 8 9 6 10 15 16 16 17 18 19 19 19 20 21 21 21 21 22 22 21 21 20 19 19 19 18 17 16 15 15 14 14 14 14 14 13 12 14 14 12 12 12 11 10 10 9 9 9 9 9 9 9 9 8 9 10 10 10 10 9 9 9 10 10 10 10 10 10 9 9 10 10 9 8 7 6 7 7 7 6 6 7 7
7 6 5 5 6 6 4 3 6 6 6 11 9 3 5 8 7 11 15 16 17 17 17 18 18 18 19 20 20 20 21 22 22 21 20 19 18 18 18 18 17 16 15 15 15 14 14 14 14 12 12 14 15 13 13 13 12 11 11 9 9 9 8 8 8 9 9 8 8 9 10 10 10 10 9 10 10 10 10 9 10 9 9 9 9 9 8 7 7 6 6 6 6 6 5 6 6
6 5 5 5 5 6 7 5 8 6 5 11 9 3 4 8 10 13 15 17 18 17 17 18 18 18 19 19 19 20 21 21 21 20 20 20 19 18 18 18 17 16 15 16 15 15 15 14 14 12 11 12 14 15 14 14 13 12 11 10 10 10 9 8 7 8 8 8 8 8 9 9 9 10 9 9 9 10 10 9 9 9 9 9 8 9 8 7 7 7 7 6 5 6 5 5 6
6 5 7 6 5 5 8 6 5 3 5 10 8 2 5 9 11 14 15 17 17 16 17 18 18 18 18 19 19 20 21 20 20 20 20 20 19 18 18 18 18 17 16 16 16 15 15 14 13 12 12 12 13 15 16 15 13 12 11 10 10 10 9 8 7 8 7 7 7 7 8 9 9 9 9 9 8 8 8 8 8 9 9 9 8 8 7 6 6 7 8 6 5 6 5 4 5
7 7 7 7 7 5 7 7 3 2 5 9 8 3 5 9 11 14 14 16 16 15 16 18 18 18 18 19 19 20 21 21 21 21 20 20 19 19 18 19 19 18 16 15 16 16 15 14 13 12 12 12 13 15 17 16 14 12 11 11 10 10 9 8 8 8 7 7 7 6 8 8 8 8 8 8 8 7 7 7 6 7 8 8 8 8 7 6 6 6 7 7 6 6 5 4 4
7 8 7 7 8 6 5 7 5 3 4 6 8 5 5 9 9 12 13 14 15 14 15 17 17 18 18 18 19 20 21 22 22 22 22 21 19 19 19 19 20 18 16 16 16 16 16 15 13 13 13 12 13 15 16 16 14 13 12 11 10 10 9 8 7 7 7 6 6 6 6 7 8 7 7 8 7 7 7 7 6 6 7 7 8 8 7 7 7 5 6 7 8 6 4 4 3
9 10 8 6 7 6 4 6 5 4 5 4 7 5 3 8 9 10 13 13 13 12 13 16 16 18 18 18 19 20 21 21 22 22 22 21 20 19 19 19 20 19 17 16 16 16 16 15 15 14 13 13 14 15 16 15 15 13 12 12 11 10 9 8 8 7 6 5 5 4 4 6 7 7 6 7 6 6 6 6 6 6 6 7 7 8 7 7 7 7 6 7 8 7 5 4 3
7 10 10 7 8 7 4 7 4 2 4 5 6 5 5 7 8 9 12 13 12 11 12 14 16 17 18 18 18 20 21 21 22 22 22 21 20 20 19 19 19 19 17 17 17 18 17 17 16 15 15 14 15 16 17 16 15 14 13 12 11 9 8 8 8 7 6 5 5 4 5 5 6 6 6 6 6 6 6 7 6 6 6 7 8 8 7 6 7 8 7 8 8 6 5 3 2
3 6 9 7 6 6 6 6 4 1 4 4 4 4 5 6 8 9 11 12 13 13 14 14 16 17 17 18 18 19 20 20 21 22 22 21 20 20 19 19 19 19 18 19 19 19 19 18 17 16 16 16 16 17 18 17 16 14 14 12 11 9 8 8 7 7 6 5 6 6 6 5 5 6 6 6 6 6 6 7 7 6 6 7 8 8 7 7 8 8 8 9 7 5 3 2 2
4 4 7 7 7 5 6 4 5 1 5 4 4 4 5 5 6 10 11 12 13 15 16 17 18 18 17 18 17 18 19 19 21 22 23 22 21 21 20 19 19 20 20 21 20 20 20 19 18 17 17 18 18 18 19 18 16 14 13 12 11 9 8 7 6 6 6 5 6 6 6 6 6 6 6 6 6 6 6 7 7 7 7 7 8 8 8 8 9 9 9 8 6 5 3 2 2
5 5 6 7 8 5 5 5 5 2 4 3 5 4 5 5 5 9 12 13 14 16 17 17 19 19 18 19 18 18 18 19 21 23 24 24 23 22 20 19 19 20 20 21 21 21 21 20 19 18 18 19 19 19 19 17 16 14 12 12 11 9 8 7 6 7 7 6 6 6 6 6 6 6 6 7 7 6 6 6 6 7 7 7 7 8 9 9 9 9 9 7 5 4 3 3 3
7 6 6 7 8 7 5 7 6 2 3 1 1 4 4 6 5 7 11 13 13 15 16 15 17 18 18 18 18 19 19 20 21 23 24 25 24 23 22 20 20 20 19 20 20 21 22 21 21 20 19 19 19 19 18 17 15 14 12 12 12 10 9 8 7 7 7 7 6 5 5 6 6 6 6 6 7 6 6 6 7 6 7 8 8 7 9 9 8 8 8 7 6 3 2 3 2
9 8 8 6 7 7 4 4 4 4 4 4 4 5 5 6 7 6 9 12 12 12 13 12 12 14 14 15 17 19 20 21 22 23 24 25 25 25 23 21 21 20 20 20 21 21 22 22 22 21 20 19 20 19 18 17 16 15 13 13 13 12 10 9 8 7 8 7 6 5 5 6 6 6 5 5 5 5 6 6 7 7 7 7 7 7 8 8 8 8 8 7 6 4 3 3 2
8 10 11 7 3 5 5 2 3 6 6 6 6 7 5 6 4 1 2 7 7 5 6 7 7 9 11 12 14 17 19 20 21 22 24 25 25 25 24 23 22 21 21 20 21 20 20 21 21 22 21 20 20 19 18 18 17 15 15 14 14 14 11 10 9 8 7 7 6 6 6 6 7 6 6 5 5 4 5 6 7 7 7 7 7 7 8 7 7 7 7 7 6 4 4 4 2
5 7 11 10 5 6 7 5 5 6 4 5 5 8 5 7 5 6 2 2 5 3 2 5 8 9 10 10 11 14 16 18 20 21 23 24 25 25 25 24 23 22 21 21 21 21 20 20 19 21 22 22 21 19 19 19 18 16 16 14 14 14 12 11 11 9 8 7 7 7 6 6 7 6 6 5 5 5 4 5 6 6 7 7 7 8 8 7 7 7 7 7 6 5 5 4 3
2 7 7 9 9 9 9 7 7 5 1 2 6 8 4 5 6 7 5 6 8 5 2 2 6 9 12 12 13 14 15 16 18 20 22 23 25 26 26 25 24 23 21 21 21 21 22 21 19 19 21 23 22 21 20 19 19 18 17 15 15 14 11 11 12 11 10 9 9 7 7 7 7 7 6 6 5 5 5 5 5 6 6 7 7 8 8 8 8 8 8 7 6 5 5 4 4
1 7 4 5 6 9 9 8 8 5 3 5 8 7 6 4 7 6 7 8 8 7 6 5 2 3 10 14 15 17 19 18 17 19 21 22 24 25 25 25 25 23 22 22 22 23 23 21 20 19 19 21 22 22 21 20 19 19 18 16 16 15 13 11 12 12 12 11 9 8 8 7 7 8 7 6 5 4 4 4 5 5 6 7 7 8 8 9 8 8 8 7 6 5 5 4 4
1 4 4 3 4 6 7 8 7 5 5 8 9 9 7 3 6 4 5 7 8 7 6 7 8 5 5 12 15 17 19 20 19 19 20 22 23 24 24 24 25 24 23 22 22 23 23 22 21 21 20 20 21 21 22 22 21 20 19 18 17 16 15 14 12 13 14 13 10 9 9 8 8 8 8 7 6 5 5 4 4 5 5 6 7 8 8 9 9 8 8 8 7 6 6 5 4
2 5 6 5 5 5 5 6 5 6 7 10 10 10 10 3 5 5 6 7 8 7 6 8 8 8 6 6 14 16 17 19 19 19 19 20 22 23 23 23 24 24 23 23 23 23 23 23 23 23 22 21 20 20 21 22 22 21 20 19 18 16 16 16 16 16 15 14 12 10 9 9 9 8 8 8 7 6 6 5 5 5 5 5 6 6 7 8 8 8 9 9 8 7 7 7 6
5 7 7 6 6 5 5 5 5 6 7 10 11 9 7 3 4 6 7 7 8 7 7 9 9 9 9 6 7 13 16 16 17 18 19 20 20 22 23 23 23 24 24 24 23 23 24 24 24 24 24 23 21 20 20 21 22 23 22 20 19 18 16 16 17 17 16 14 13 11 10 10 9 9 9 8 8 8 7 7 6 5 5 4 5 5 6 7 7 8 9 9 9 8 8 8 8
8 8 8 7 7 6 7 7 7 7 6 8 11 8 3 3 6 6 8 8 8 9 9 9 11 10 9 9 6 9 14 14 15 16 17 19 21 22 22 23 24 24 25 25 24 23 24 24 24 24 25 25 23 22 21 20 21 22 22 21 20 19 18 17 16 17 17 16 14 13 12 11 10 10 10 9 8 8 7 7 7 6 5 5 5 5 6 7 7 8 8 8 8 9 9 9 9
10 9 8 8 7 7 9 8 7 8 6 6 9 8 5 6 7 7 8 9 9 10 11 10 11 11 10 9 8 0 9 12 14 16 16 17 20 22 22 23 24 25 26 26 25 24 24 24 24 24 25 24 24 23 22 21 21 21 21 21 21 20 19 18 17 16 16 17 16 15 13 11 11 10 10 10 9 9 8 7 7 6 6 6 6 5 5 6 7 7 8 8 8 8 9 9 9
11 9 8 8 6 6 7 7 8 9 7 8 9 7 6 7 6 6 9 11 12 12 12 12 12 12 11 11 13 12 5 1 6 11 16 18 19 21 22 23 24 26 26 26 26 26 26 25 24 24 24 24 24 24 23 22 21 21 20 20 21 21 21 19 18 17 16 17 16 16 14 12 11 10 11 11 10 10 9 8 8 7 7 7 6 6 5 5 6 6 7 8 8 8 9 9 10
8 7 8 7 4 4 4 5 7 8 8 8 7 4 5 9 8 7 9 11 13 14 15 16 15 15 15 15 16 16 12 7 4 1 8 17 20 20 21 23 23 24 26 26 26 27 27 26 25 24 24 24 24 24 23 22 22 21 20 20 20 21 22 21 20 18 17 17 16 16 16 14 12 11 11 11 11 10 10 9 9 8 7 8 7 7 6 6 6 6 7 7 8 8 9 9 10
5 7 7 2 3 3 3 2 4 7 7 8 7 7 8 9 8 7 8 9 12 14 17 19 19 18 18 19 18 17 15 11 7 5 3 9 18 21 21 22 22 23 24 25 26 28 29 27 26 25 24 24 24 24 23 22 22 23 22 20 19 20 22 23 22 20 18 17 17 17 16 15 15 13 12 12 12 11 11 10 9 9 8 8 8 8 8 8 7 6 7 7 8 8 8 9 9
3 5 5 3 2 3 5 3 5 8 7 7 9 10 10 8 5 5 7 9 12 13 16 18 20 20 19 19 18 18 17 14 10 6 5 3 10 18 20 20 22 23 22 24 26 28 30 28 26 26 26 26 25 24 24 24 23 23 23 21 20 19 21 22 23 22 20 19 18 18 17 17 16 15 14 14 14 12 12 11 11 10 10 9 9 9 9 9 8 8 8 8 8 9 8 8 9
3 2 1 2 4 5 5 5 6 9 8 6 9 11 8 3 3 5 6 10 11 12 14 16 18 20 20 19 18 18 17 16 15 10 6 5 4 11 18 20 20 20 22 23 24 25 28 30 28 27 26 26 25 24 24 25 24 24 23 22 21 19 20 21 23 23 22 21 20 18 18 18 17 17 17 16 15 14 13 13 12 12 11 11 10 10 10 10 9 9 9 9 9 9 9 8 8
2 3 2 3 4 3 5 5 5 7 8 7 8 9 6 4 6 7 8 9 9 11 12 13 17 20 19 19 18 18 18 17 17 14 10 7 6 3 11 18 19 19 21 22 22 24 25 26 28 28 27 26 26 26 26 26 25 25 25 23 22 21 20 20 22 23 23 22 21 19 19 18 18 18 18 18 17 17 16 14 13 13 12 12 11 11 11 11 10 10 10 10 10 10 9 9 9
3 5 5 5 4 3 3 5 4 4 6 7 9 8 6 6 5 6 7 8 8 10 11 12 17 19 18 18 18 18 19 18 17 16 14 8 4 4 1 11 16 17 19 20 21 22 23 23 24 26 27 27 27 28 28 28 26 26 26 25 24 22 21 20 21 23 23 22 22 21 20 20 19 19 19 19 18 18 18 17 15 14 13 13 13 13 13 12 12 11 11 10 11 11 10 9 10
3 2 2 2 4 4 5 7 5 4 5 4 7 8 7 6 4 4 7 7 8 10 11 13 16 18 18 17 17 18 19 19 18 17 17 13 5 5 5 7 11 11 13 17 19 19 20 21 22 22 24 25 26 27 28 28 27 28 27 26 25 24 23 22 21 22 22 23 23 23 22 21 21 20 19 19 19 19 20 19 18 17 16 16 15 14 14 14 13 12 12 11 11 11 10 11 11
Wind_Direction
137 137 141 144 148 156 163 177 219 202 223 229 141 130 111 104 104 117 130 130 134 140 139 134 139 135 117 115 107 80 54 58 25 52 105 123 140 145 145 145 141 138 143 144 139 134 132 128 127 121 116 119 121 121 121 121 119 117 116 115 114 111 109 109 110 110 100 88 82 81 82 86 94 95 97 103 112 118 113 115 114 110 112 114 115 109 109 107 104 106 110 112 115 117 116 114 113
139 139 147 144 155 175 174 197 255 222 216 158 87 77 93 110 115 120 130 130 115 133 142 135 134 119 99 104 106 100 66 50 56 87 110 132 136 139 145 145 141 138 140 143 139 133 131 131 130 123 119 122 123 122 120 118 117 117 115 113 108 104 105 107 102 90 80 75 80 84 85 90 98 98 96 101 109 114 114 118 114 107 107 106 107 108 113 110 104 106 109 112 113 114 112 112 111
153 145 152 149 169 202 194 216 253 250 203 83 74 76 100 112 112 115 117 110 114 132 135 130 124 106 119 119 86 93 82 69 98 110 122 136 137 140 145 144 143 136 136 139 136 132 134 138 134 127 123 122 125 125 122 119 119 116 111 106 100 100 102 99 92 86 88 90 89 90 89 91 99 100 99 98 98 100 107 116 116 112 107 106 107 105 109 106 100 100 102 103 105 108 109 112 111
158 151 165 170 194 217 232 226 272 290 76 84 81 85 100 103 106 109 111 116 127 133 130 130 116 86 107 104 78 85 89 97 117 124 128 139 144 144 144 144 143 134 131 133 133 135 139 144 137 133 128 121 123 123 120 117 112 108 104 102 103 104 97 94 96 94 96 94 87 86 87 91 98 101 100 101 100 98 100 110 116 116 112 109 107 102 103 101 100 97 97 101 101 104 109 110 107
156 166 179 205 237 253 262 244 261 286 45 65 92 96 101 104 113 116 120 127 133 133 133 134 116 99 85 65 67 95 94 110 125 129 130 137 144 146 147 145 140 134 132 131 133 138 143 146 142 141 133 121 120 119 116 112 109 107 106 110 112 103 94 95 95 93 96 97 95 92 87 85 90 95 97 101 103 102 103 107 108 109 107 103 102 102 100 97 98 96 96 99 97 102 111 111 106
161 181 194 238 264 299 275 247 147 85 38 27 91 100 104 110 121 125 127 129 131 134 135 131 126 121 91 60 70 87 98 124 130 131 133 138 143 147 148 145 138 137 136 133 136 141 147 151 147 143 133 123 119 117 115 114 113 112 117 121 112 100 101 102 97 97 101 103 101 94 88 85 88 93 94 96 97 98 99 100 101 103 101 97 98 100 99 98 96 94 94 93 93 99 104 106 108
175 194 208 242 251 247 260 21 66 77 47 19 83 103 110 115 125 130 131 133 135 138 137 129 130 121 99 97 88 73 92 127 134 135 137 141 143 145 144 142 139 140 139 137 141 147 151 154 150 141 131 124 119 120 119 119 116 119 126 117 103 101 106 103 102 106 105 103 98 92 89 89 91 91 89 91 95 96 97 99 100 101 100 98 97 97 98 99 97 96 94 92 95 98 99 101 106
193 216 231 261 227 211 257 72 66 67 73 59 81 99 112 124 131 135 136 140 146 141 138 135 129 108 98 114 95 83 106 125 135 137 139 142 144 142 141 142 142 142 141 141 147 152 152 152 148 138 131 126 125 125 123 122 118 127 120 102 96 101 104 103 106 109 105 105 99 92 86 86 92 93 89 89 93 97 102 104 102 100 101 100 98 97 98 96 93 92 92 94 97 97 100 101 101
212 238 253 269 245 202 193 96 95 80 88 94 89 98 115 130 134 139 142 141 145 137 137 141 127 106 107 104 96 105 118 126 134 137 140 142 144 142 141 144 143 143 142 142 148 154 151 150 145 137 134 132 132 128 125 123 122 124 106 95 96 99 100 104 110 111 107 106 100 92 88 90 96 100 98 96 96 98 104 104 100 100 101 99 98 97 96 93 89 87 87 93 97 96 98 100 101
223 237 263 270 252 180 136 96 102 94 92 95 97 114 124 131 136 140 141 137 141 136 133 134 116 119 121 106 100 112 126 133 137 138 140 143 145 143 141 143 144 144 141 138 143 148 146 144 141 136 136 134 133 128 126 122 123 117 102 99 97 100 107 108 111 112 107 105 102 99 97 98 101 104 105 105 106 105 104 102 99 99 99 97 95 94 91 89 87 86 87 90 92 91 93 98 103
242 226 258 277 234 123 105 97 102 105 105 102 106 122 127 130 138 138 136 138 143 137 135 132 116 121 118 101 98 115 131 138 141 140 142 144 145 144 142 142 145 143 140 138 140 143 140 139 140 139 139 136 132 128 125 118 118 111 105 104 99 106 117 113 112 111 108 106 104 104 102 103 106 109 108 109 112 110 107 102 98 97 98 98 96 93 88 85 86 87 89 94 95 93 97 101 104
266 231 253 271 59 67 84 98 97 106 118 117 120 126 127 133 138 140 140 142 143 138 138 136 128 128 117 104 108 126 137 141 144 144 144 145 144 144 143 142 144 143 141 139 137 141 140 139 141 142 142 137 134 130 124 117 112 103 102 103 104 110 115 113 112 110 108 104 102 103 103 104 108 113 112 110 113 111 105 101 99 99 100 101 101 96 89 85 86 87 90 97 100 99 101 103 104
267 321 282 279 42 66 94 103 110 130 128 118 128 131 136 141 140 143 143 145 145 139 137 134 135 130 111 112 122 136 143 145 148 147 146 146 145 144 143 142 144 144 143 138 136 140 139 138 138 142 146 140 136 133 127 117 109 104 99 96 101 110 113 111 110 109 109 106 104 106 107 109 111 113 114 113 112 110 106 102 103 103 101 101 100 96 92 90 87 87 90 93 96 98 100 100 102
263 316 299 304 101 128 101 115 134 141 117 112 128 136 150 141 136 145 148 150 140 124 128 136 138 122 115 125 136 149 149 149 151 149 147 147 147 145 143 143 145 145 143 141 140 139 139 138 142 147 149 143 136 133 131 123 115 111 102 98 102 108 111 111 113 113 112 111 109 110 110 110 113 113 113 113 111 110 107 104 101 99 99 99 99 98 98 98 94 89 88 90 93 97 100 101 103
275 305 291 268 146 129 100 108 122 113 108 125 138 143 148 129 143 152 146 145 124 116 125 137 145 129 143 153 152 156 154 152 152 149 149 147 147 146 144 145 147 148 143 143 144 141 142 144 149 153 150 141 132 132 134 127 120 111 106 108 108 108 108 109 113 111 110 110 109 112 112 111 114 113 112 113 113 111 107 104 100 97 97 99 98 99 102 102 99 94 91 94 96 99 102 103 103
275 296 277 245 121 106 79 81 85 95 114 133 143 148 143 133 157 150 112 119 128 134 138 139 148 145 160 160 153 155 154 154 153 149 149 146 147 147 147 147 149 151 146 147 149 145 148 151 156 156 148 138 131 136 137 129 124 116 113 113 109 109 107 106 108 105 106 108 109 111 110 112 114 114 113 114 115 113 110 107 103 100 99 99 98 98 99 96 96 97 96 98 99 100 101 101 99
265 273 257 153 91 75 50 55 63 79 117 132 147 159 149 141 157 143 121 131 133 135 136 136 135 132 150 149 147 151 152 153 153 151 149 147 148 150 150 151 154 155 153 155 152 150 155 157 158 155 147 141 138 140 138 131 129 123 119 118 111 109 107 107 108 103 103 106 111 112 109 112 114 115 115 115 118 117 115 109 105 102 101 100 97 93 91 90 92 96 98 98 98 97 95 92 90
247 255 244 88 73 64 42 42 56 71 122 139 157 169 158 150 153 151 150 142 132 126 125 131 125 122 130 136 143 148 152 154 156 155 152 151 152 153 154 157 159 158 160 160 155 158 161 161 162 156 150 149 146 142 139 134 128 125 124 122 114 109 107 107 105 101 104 107 110 111 108 110 114 115 113 113 116 117 116 111 106 102 101 99 95 92 90 88 90 95 98 98 97 94 91 86 83
240 271 327 80 63 67 54 42 53 53 93 141 161 173 172 154 152 163 164 148 144 137 139 141 129 126 130 138 145 149 153 156 159 160 156 155 157 157 157 159 160 160 163 160 160 166 162 164 166 158 156 154 149 144 141 137 130 127 124 119 114 109 104 102 103 101 102 102 104 108 108 109 112 114 112 111 109 110 114 112 107 102 100 96 94 93 90 88 89 94 96 95 91 85 84 84 83
229 255 152 90 63 69 61 38 42 46 76 148 160 171 177 155 155 171 169 153 160 160 155 152 141 140 143 146 149 151 156 159 161 163 161 160 161 161 160 161 162 163 162 158 165 170 162 168 169 160 160 154 148 149 143 140 135 127 119 112 108 105 101 101 104 104 102 100 101 104 106 108 110 112 110 106 105 107 110 110 106 102 99 96 96 95 91 89 88 90 88 84 79 77 82 90 90
210 241 62 86 51 44 49 31 35 44 81 151 158 168 175 163 163 173 169 160 170 177 163 157 152 151 151 151 153 156 159 162 164 166 164 163 164 163 163 162 163 161 158 159 169 170 165 170 169 162 161 153 148 152 146 143 139 128 124 119 111 108 107 108 106 105 105 101 103 105 106 108 110 112 108 105 110 110 107 107 107 105 101 98 99 99 96 92 88 86 83 81 80 83 91 95 95
251 233 323 61 341 8 21 17 30 33 79 140 161 172 164 162 174 180 177 154 124 160 158 152 155 156 156 155 156 158 162 164 167 168 167 167 165 164 164 162 161 161 159 163 170 170 168 169 167 163 160 153 151 155 149 142 138 130 130 127 119 117 114 112 109 109 107 102 107 110 109 108 109 111 110 115 119 115 112 115 116 112 106 104 105 105 103 97 93 89 84 86 85 86 92 92 93
253 213 201 295 318 339 339 355 19 13 69 142 164 163 155 165 178 183 180 93 74 135 145 146 153 157 158 158 158 160 164 167 168 169 169 168 166 165 164 163 162 163 163 166 169 170 169 168 165 163 161 155 155 157 149 141 135 133 136 130 125 125 117 111 111 114 112 109 113 113 111 113 114 114 117 121 119 117 120 120 117 112 110 113 113 112 108 102 96 92 88 87 83 82 89 91 88
245 242 212 288 308 312 318 342 354 335 335 149 153 151 167 177 168 174 176 121 102 128 138 143 148 154 158 160 162 162 165 168 169 170 170 168 167 167 165 163 163 165 167 167 168 170 170 169 166 163 162 158 156 154 148 143 137 136 138 131 131 128 120 118 119 117 113 112 115 115 115 115 118 120 122 122 122 125 123 118 115 112 115 121 119 113 108 105 98 92 87 83 82 79 81 87 84
230 249 270 292 292 300 307 314 318 288 196 153 157 163 173 178 158 168 170 134 126 131 136 143 147 153 159 162 164 164 165 168 168 169 169 169 167 166 165 164 166 168 169 168 167 170 171 171 169 166 164 160 157 154 150 146 141 141 139 134 135 129 124 126 120 115 113 113 116 120 120 117 119 122 122 122 124 125 119 117 118 116 118 121 117 114 111 108 99 90 85 81 81 77 76 83 84
210 242 284 296 289 294 298 299 303 197 171 157 165 170 162 170 166 164 161 141 137 138 140 145 149 156 162 165 166 165 166 168 168 169 169 168 168 168 167 168 169 171 171 170 169 170 172 172 171 169 166 162 158 156 152 150 149 146 142 139 136 130 126 125 118 115 116 116 118 121 123 124 121 119 121 121 119 119 118 119 120 119 120 119 117 118 115 108 99 93 89 84 82 80 80 81 84
179 260 285 282 281 280 279 292 276 176 166 167 172 160 152 171 187 167 158 152 144 145 147 150 154 159 164 166 168 168 169 169 169 169 168 169 171 171 171 172 172 172 173 172 171 172 174 173 172 173 168 163 160 159 157 155 154 148 144 141 137 133 127 123 121 121 120 120 122 121 122 124 120 118 118 117 118 119 120 121 121 120 120 120 120 121 120 116 111 104 101 98 93 88 85 83 84
270 275 283 259 261 254 261 285 197 174 163 175 174 149 153 176 195 163 156 159 153 151 153 156 159 161 165 167 168 170 171 171 171 172 173 172 174 175 175 176 174 174 175 174 174 175 173 172 176 177 170 167 165 162 162 160 155 150 145 142 138 136 131 127 127 126 126 125 126 124 123 123 120 121 121 120 121 122 124 123 123 122 121 122 123 126 128 124 117 110 107 106 98 92 89 88 86
262 267 274 240 235 218 197 109 178 171 162 174 166 142 166 184 182 148 151 159 158 157 157 161 165 162 167 168 168 172 173 173 175 177 178 177 177 178 178 178 177 176 177 178 176 174 172 174 178 178 175 173 168 164 167 164 157 153 148 145 142 138 134 132 131 131 131 130 130 128 126 126 124 126 127 127 126 125 127 126 126 126 124 126 127 129 128 121 116 109 105 101 98 98 95 91 89
252 239 249 237 215 180 121 120 169 159 155 172 163 126 168 180 167 146 152 161 161 162 162 165 167 165 168 170 170 173 175 176 179 180 181 180 181 181 181 181 180 177 178 180 179 174 174 177 176 176 179 175 169 169 170 165 159 156 152 150 145 140 137 134 135 134 134 135 136 133 131 130 128 129 131 133 131 129 129 129 130 132 131 130 129 128 125 121 122 118 109 104 103 103 102 98 95
233 210 217 235 208 149 103 128 172 155 154 181 176 138 145 160 157 150 156 165 165 165 165 167 168 168 170 172 175 176 177 180 181 182 182 182 182 182 183 183 181 181 181 181 181 178 178 181 176 173 179 175 172 174 172 166 162 159 155 153 150 144 139 137 139 136 135 137 136 137 137 134 132 131 132 133 133 133 133 133 134 136 136 134 134 133 128 126 126 121 116 109 106 107 105 102 100
216 212 202 215 204 140 108 128 177 147 157 190 201 180 134 140 143 150 160 167 170 169 167 169 169 170 173 174 177 179 180 182 183 184 183 183 183 183 184 184 183 184 185 182 183 181 180 185 181 175 179 176 176 176 174 170 164 161 158 156 154 147 141 143 146 141 137 136 135 141 139 136 138 136 134 134 135 136 136 140 142 143 141 137 140 138 130 127 125 127 126 117 119 118 110 106 103
204 218 206 199 201 175 125 128 142 109 153 184 205 227 98 113 135 149 162 169 172 173 168 170 171 171 174 175 178 180 180 181 184 186 185 184 184 185 185 186 186 187 186 183 185 184 183 188 183 176 181 179 181 179 175 172 166 163 162 159 158 153 147 147 150 146 141 138 139 144 138 137 140 139 138 136 137 140 140 146 152 151 148 145 147 144 140 138 131 132 131 127 127 121 112 111 103
190 205 209 196 203 207 152 136 128 147 188 184 196 223 76 98 130 149 163 173 176 177 173 172 173 173 175 177 179 181 181 182 185 186 186 186 187 187 186 189 189 189 188 184 187 188 187 192 185 178 184 183 184 181 177 174 168 167 166 163 164 159 152 150 152 148 143 143 146 143 136 139 140 138 140 137 140 145 144 149 153 155 154 153 154 150 151 150 141 137 134 133 133 125 118 117 107
196 192 202 193 192 208 160 126 120 170 202 185 189 211 130 117 130 149 165 178 182 182 179 177 176 177 176 179 182 182 183 184 185 186 186 186 187 188 187 190 191 190 190 186 189 190 190 196 190 183 184 183 186 184 180 177 174 173 169 167 169 164 158 158 157 154 147 146 152 148 139 139 139 139 143 142 145 147 149 154 153 155 159 160 158 150 147 149 149 146 139 139 138 133 129 124 116
211 189 204 207 192 194 133 97 96 176 203 188 188 200 184 157 146 158 171 179 189 188 185 184 182 182 181 182 183 182 184 185 185 186 185 186 187 187 186 188 190 191 191 189 191 192 195 200 195 187 183 183 188 187 183 181 179 179 174 172 175 171 165 163 161 156 152 157 164 160 152 146 141 145 151 150 151 152 155 157 155 160 166 164 155 145 144 151 155 151 148 148 139 128 124 118 110
220 180 195 206 198 176 129 107 101 193 236 190 185 205 195 180 160 163 174 179 191 194 191 191 188 187 187 186 185 183 184 185 184 184 185 185 185 184 184 186 188 190 191 193 194 194 198 202 199 191 185 185 188 189 187 184 183 184 180 178 179 178 172 165 163 156 154 174 176 163 158 158 151 153 155 153 154 156 157 159 160 164 167 163 152 146 152 159 157 154 155 153 141 129 123 119 122
216 204 191 197 209 166 121 120 106 145 244 165 161 219 192 184 169 159 173 187 197 199 196 195 192 189 189 189 187 183 183 182 181 183 184 184 184 183 183 184 186 189 194 197 196 197 199 202 202 196 190 189 190 191 191 188 188 187 184 181 180 183 179 165 161 159 159 183 182 163 161 160 153 156 157 153 151 152 162 166 164 161 159 158 153 153 158 157 155 154 153 153 147 141 137 151 146
215 220 208 206 207 175 131 142 123 143 253 151 143 220 189 172 172 162 180 198 201 202 200 196 192 190 189 189 187 183 182 181 180 182 185 185 184 183 184 186 187 189 195 198 199 200 201 201 203 201 196 194 193 194 194 193 193 190 187 186 180 180 182 172 170 171 167 177 178 162 160 156 147 150 152 147 145 151 164 168 161 158 157 156 154 159 160 156 155 154 151 152 152 150 146 157 154
220 215 217 208 190 202 186 156 152 177 261 273 153 236 200 164 174 179 192 205 207 205 204 201 194 193 192 188 186 185 183 181 180 182 185 186 186 187 187 188 189 190 194 198 200 203 203 202 203 203 200 198 198 199 197 195 198 196 193 192 185 181 184 183 181 178 173 172 172 163 158 151 138 135 139 137 140 153 163 161 160 161 159 157 158 161 157 154 157 156 158 157 147 148 155 151 145
217 219 228 215 176 215 236 137 168 203 209 238 239 233 208 177 187 189 190 202 210 208 202 204 202 196 194 191 189 188 185 183 182 182 185 188 189 190 191 191 192 192 194 197 199 202 205 205 204 203 203 202 204 205 200 198 200 201 199 196 194 191 190 190 183 180 182 172 164 164 161 153 141 132 135 138 141 153 160 160 161 162 160 159 161 164 157 156 163 163 168 166 151 149 153 147 153
209 214 226 239 182 211 235 159 208 220 191 187 223 233 189 160 168 82 162 195 197 204 198 200 214 202 192 196 196 192 189 187 186 185 184 187 190 191 192 193 194 194 196 198 199 202 206 207 206 205 204 204 207 208 205 204 204 204 205 201 199 199 196 195 189 181 183 169 159 174 171 157 150 146 144 144 147 155 160 160 161 164 167 166 169 172 168 167 170 171 177 174 167 170 157 146 154
207 186 208 229 234 219 224 219 221 227 188 149 212 243 183 134 81 42 31 147 128 132 167 184 210 205 187 194 202 200 197 192 189 189 187 188 190 191 193 195 196 196 197 198 199 203 207 208 206 206 206 207 209 209 208 210 210 209 211 207 204 203 199 202 197 183 178 171 167 178 178 165 159 156 155 154 153 158 160 160 163 169 175 178 181 181 179 179 179 182 185 180 179 182 167 156 156
174 119 178 214 221 222 219 222 225 232 282 149 204 240 219 138 85 71 89 87 90 89 53 160 203 203 190 194 198 198 204 202 194 193 192 191 190 191 193 195 197 197 196 198 199 203 208 209 208 207 207 208 209 210 210 212 213 214 215 211 209 207 202 208 207 193 185 180 175 177 178 177 171 165 168 167 160 158 162 164 164 171 182 187 189 189 188 191 190 189 188 185 183 184 180 172 168
133 105 173 198 206 219 211 215 223 222 256 224 196 210 226 158 100 89 94 78 62 49 28 21 0 226 201 203 202 195 199 205 202 198 196 194 192 192 193 195 197 197 196 198 200 205 209 209 209 208 208 209 210 211 211 212 214 217 218 215 215 211 205 207 208 202 198 189 182 181 180 182 181 178 179 176 169 164 168 171 168 172 183 187 189 193 196 199 198 193 192 192 191 192 195 190 180
126 125 190 169 179 207 205 213 214 198 228 230 192 185 214 158 92 76 70 53 27 21 21 14 2 336 232 211 210 202 199 201 204 203 201 197 194 193 194 194 196 196 196 199 202 207 210 210 209 209 208 208 210 211 212 213 214 216 218 217 218 216 211 208 205 205 204 198 190 189 186 185 187 188 188 184 178 174 179 181 178 178 180 184 188 193 198 202 204 201 200 202 203 202 200 200 203
173 173 189 176 176 186 198 212 210 199 215 225 204 193 219 213 80 57 42 32 12 8 10 10 359 341 326 237 214 209 205 203 203 204 203 201 198 196 195 195 195 194 195 199 203 207 212 212 210 209 209 209 211 211 211 214 215 217 218 218 218 219 216 214 212 211 209 203 198 197 195 191 192 194 194 195 188 183 187 186 186 186 186 189 190 192 194 197 203 206 207 209 213 212 207 207 216
206 199 192 179 172 173 190 190 204 215 212 215 202 186 216 226 85 59 42 32 17 13 9 7 360 349 345 318 239 215 210 206 204 203 202 201 199 198 197 196 196 194 194 197 201 205 212 214 211 210 211 212 213 213 212 214 217 219 219 218 218 219 219 218 216 216 215 210 206 203 200 197 198 198 198 201 200 198 195 190 191 195 195 200 198 198 195 191 198 205 207 211 215 216 214 213 219
207 202 192 185 173 175 191 183 195 214 210 202 189 174 170 92 76 54 41 33 24 20 14 10 4 359 357 346 311 227 213 210 206 203 202 201 199 200 199 197 196 195 196 198 199 202 210 216 212 211 213 213 214 216 215 215 217 220 221 219 218 218 219 219 217 218 218 216 215 211 204 200 201 202 201 203 206 209 208 200 200 202 203 208 205 204 200 195 200 203 203 207 212 215 214 213 216
203 203 193 194 186 180 191 188 193 206 199 173 172 182 174 117 83 54 49 39 31 30 23 20 15 10 13 13 11 270 206 214 213 206 204 205 202 201 201 198 197 199 202 204 203 203 210 216 213 211 213 214 216 218 218 218 219 221 222 221 220 219 219 218 216 218 220 220 220 218 212 206 206 208 207 206 206 212 216 213 211 211 213 214 210 208 204 200 201 201 201 204 208 211 212 211 214
195 206 204 210 212 197 196 195 192 192 179 155 162 187 180 141 104 64 64 52 42 41 35 33 30 25 26 29 29 34 50 199 222 208 208 213 208 202 202 199 199 204 208 209 206 208 213 216 213 211 213 214 216 218 219 221 221 222 223 222 221 220 219 219 217 216 219 220 220 221 219 213 210 212 212 210 210 212 216 219 217 217 218 220 220 217 213 209 201 195 199 203 205 209 210 212 215
183 204 218 222 236 234 218 205 201 196 178 161 164 160 117 121 117 90 72 58 49 45 42 40 36 33 33 34 29 25 29 29 14 237 214 219 214 206 203 202 201 206 211 208 206 212 217 215 211 211 213 215 216 217 219 221 223 224 225 223 221 221 220 220 219 217 217 218 218 220 223 220 215 215 214 212 213 215 217 220 220 220 221 221 223 225 225 223 214 200 199 202 205 210 210 214 218
179 195 211 189 16 296 255 196 205 216 192 162 149 120 111 130 127 93 65 56 51 45 42 41 38 35 35 34 28 22 19 14 4 355 310 234 219 211 206 205 203 206 210 208 209 218 223 219 213 211 213 216 218 218 219 220 223 225 227 226 223 223 221 220 221 220 219 219 218 218 221 223 221 220 217 214 215 218 219 220 220 220 222 221 222 226 230 232 228 217 208 206 207 213 213 212 217
233 195 183 112 50 285 268 221 192 207 197 164 157 146 148 171 150 84 53 43 44 44 43 42 40 37 36 34 29 23 19 14 7 346 328 295 229 216 211 209 208 207 210 211 215 225 230 229 223 217 216 217 218 219 220 221 222 224 227 228 225 224 222 220 221 222 222 222 220 217 217 221 223 223 221 218 217 218 220 221 221 220 220 219 219 224 229 234 235 230 223 217 212 213 216 214 215
300 299 151 180 218 210 220 229 198 199 198 165 158 154 147 155 103 69 45 37 39 43 43 41 40 37 36 34 29 26 23 19 16 8 350 346 299 229 216 213 210 211 214 215 220 230 235 235 235 230 226 224 221 221 222 222 222 223 225 227 226 224 223 220 220 222 222 222 220 217 217 220 222 223 225 223 219 219 222 222 222 222 221 219 219 220 225 230 231 233 231 227 223 217 213 215 217
232 256 222 227 251 218 208 225 212 208 199 161 158 166 141 73 60 57 50 45 41 44 45 42 43 41 38 33 29 28 28 24 19 16 13 8 1 300 231 217 211 214 215 212 217 226 229 231 234 235 234 233 231 228 227 225 223 223 224 225 226 225 223 221 220 221 222 222 220 218 218 220 222 223 226 227 224 223 225 224 222 223 222 223 224 221 224 229 229 232 232 227 229 229 219 216 219
211 221 209 198 226 257 247 231 233 252 222 177 178 180 132 81 66 63 63 60 49 49 52 49 48 46 43 37 32 30 31 30 26 22 22 30 58 42 285 212 208 215 216 210 212 218 220 221 224 228 230 234 236 235 233 230 226 225 224 224 225 225 224 222 221 222 223 222 221 220 219 220 222 222 224 228 228 227 229 228 224 221 221 223 226 224 225 229 230 230 231 226 227 232 228 221 222
331 280 258 226 229 229 224 216 212 259 275 220 188 167 118 91 86 82 75 69 60 57 57 56 53 49 46 40 35 34 33 34 34 30 30 39 80 119 108 157 183 202 212 213 216 218 219 217 218 220 221 225 229 233 237 236 231 229 227 225 225 225 225 224 223 224 224 222 222 221 219 220 221 222 222 226 228 229 231 230 226 224 223 223 226 226 225 229 231 228 228 228 229 233 231 228 228